Tracking 20335 objects as of 16-Feb-2020
HD Live streaming from Space Station
objects crossing your sky now

SL-16 DEB

Track SL-16 DEB now!
10-day predictions


NORAD ID: 43352
Int'l Code: 1995-058M
Perigee: 767.2 km
Apogee: 779.5 km
Inclination: 71.0 °
Period: 100.2 minutes
Semi major axis: 7144 km
RCS: Unknown
Launch date: October 31, 1995
Source: Commonwealth of Independent States (former USSR) (CIS)
Launch site: TYURATAM MISSILE AND SPACE COMPLEX (TTMTR)

Note: This is SATELLITE DEBRIS
aabbcc
Your satellite tracking list
Your tracking list is empty




NASA's NSSDC Master Catalog

Two Line Element Set (TLE):
1 43352U 95058M   20047.38034792  .00003124  00000-0  10553-2 0  9999
2 43352  71.0121  42.3307 0008597 233.9810 126.0529 14.37661343280851
Source of the keplerian elements: AFSPC